| time (UTC) | temp C | wind direction | speed KPH | gust KPH | rain 1hr cm | rain 24hr cm | rain mn cm | humidity % | barometer mb |
| 20260506232412 | 12 | 0 | 22.5 | 35.4 | 0.00 | 0.03 | 0.03 | 28 | 1012.6 |
| 20260506231345 | 12 | 338 | 20.9 | 32.2 | 0.00 | 0.03 | 0.03 | 29 | 1012.5 |
| 20260506230324 | 12 | 0 | 22.5 | 35.4 | 0.00 | 0.03 | 0.03 | 31 | 1012.5 |
| 20260506224140 | 11 | 0 | 25.7 | 38.6 | 0.00 | 0.03 | 0.03 | 33 | 1012.3 |
| 20260506223119 | 11 | 339 | 24.1 | 38.6 | 0.00 | 0.03 | 0.03 | 33 | 1012.1 |
| 20260506220933 | 11 | 0 | 22.5 | 37.0 | 0.00 | 0.03 | 0.03 | 35 | 1012.0 |
| 20260506215955 | 10 | 342 | 24.1 | 35.4 | 0.00 | 0.03 | 0.03 | 39 | 1011.9 |
| 20260506215005 | 12 | 346 | 25.7 | 38.6 | 0.00 | 0.03 | 0.03 | 36 | 1011.7 |
| 20260506212841 | 11 | 0 | 29.0 | 41.8 | 0.00 | 0.03 | 0.03 | 39 | 1011.5 |
| 20260506211837 | 11 | 334 | 29.0 | 51.5 | 0.00 | 0.03 | 0.03 | 45 | 1011.5 |
| 20260506210833 | 11 | 336 | 32.2 | 51.5 | 0.00 | 0.03 | 0.03 | 38 | 1011.5 |
| 20260506204703 | 11 | 355 | 25.7 | 49.9 | 0.00 | 0.03 | 0.03 | 40 | 1010.9 |
| 20260506203652 | 10 | 0 | 30.6 | 49.9 | 0.00 | 0.03 | 0.03 | 44 | 1011.0 |
| 20260506202646 | 11 | 331 | 32.2 | 46.7 | 0.00 | 0.03 | 0.03 | 36 | 1011.0 |
| 20260506201658 | 11 | 0 | 22.5 | 40.2 | 0.00 | 0.03 | 0.03 | 48 | 1010.7 |
| 20260506200643 | 11 | 329 | 20.9 | 30.6 | 0.00 | 0.03 | 0.03 | 45 | 1010.2 |
| 20260506195615 | 10 | 0 | 20.9 | 38.6 | 0.00 | 0.03 | 0.03 | 48 | 1010.4 |
| 20260506194545 | 10 | 331 | 22.5 | 38.6 | 0.00 | 0.03 | 0.03 | 51 | 1010.1 |
| 20260506193528 | 10 | 0 | 20.9 | 45.1 | 0.00 | 0.03 | 0.03 | 48 | 1010.2 |
| 20260506192516 | 11 | 0 | 17.7 | 45.1 | 0.00 | 0.03 | 0.03 | 51 | 1010.1 |
| 20260506191517 | 10 | 0 | 17.7 | 35.4 | 0.00 | 0.03 | 0.03 | 55 | 1010.1 |
| 20260506190524 | 9 | 0 | 24.1 | 35.4 | 0.00 | 0.03 | 0.03 | 56 | 1010.3 |
| 20260506185523 | 8 | 0 | 20.9 | 32.2 | 0.00 | 0.03 | 0.03 | 64 | 1010.5 |
| 20260506184523 | 7 | 0 | 14.5 | 27.4 | 0.00 | 0.03 | 0.03 | 75 | 1010.5 |
| 20260506183458 | 6 | 265 | 4.8 | 25.7 | 0.00 | 0.03 | 0.03 | 81 | 1010.8 |
| 20260506181411 | 4 | 274 | 6.4 | 17.7 | 0.00 | 0.03 | 0.03 | 83 | 1011.4 |
| 20260506180422 | 3 | 0 | 6.4 | 17.7 | 0.00 | 0.03 | 0.03 | 84 | 1011.3 |
| 20260506175446 | 3 | 333 | 14.5 | 33.8 | 0.00 | 0.03 | 0.03 | 83 | 1011.5 |
| 20260506174434 | 4 | 331 | 22.5 | 51.5 | 0.00 | 0.00 | 0.00 | 82 | 1011.6 |
| 20260506173410 | 5 | 0 | 30.6 | 51.5 | 0.00 | 0.00 | 0.00 | 75 | 1011.2 |
| 20260506172408 | 7 | 0 | 27.4 | 43.5 | 0.00 | 0.00 | 0.00 | 64 | 1010.4 |
| 20260506171344 | 7 | 0 | 29.0 | 48.3 | 0.00 | 0.00 | 0.00 | 62 | 1010.1 |
| 20260506170340 | 8 | 0 | 30.6 | 48.3 | 0.00 | 0.00 | 0.00 | 63 | 1009.8 |
| 20260506165352 | 11 | 0 | 22.5 | 37.0 | 0.00 | 0.00 | 0.00 | 40 | 1008.7 |
| 20260506162049 | 12 | 261 | 11.3 | 29.0 | 0.00 | 0.00 | 0.00 | 40 | 1008.6 |
| 20260506161105 | 11 | 256 | 16.1 | 29.0 | 0.00 | 0.00 | 0.00 | 42 | 1008.6 |
| 20260506160057 | 11 | 254 | 14.5 | 27.4 | 0.00 | 0.00 | 0.00 | 43 | 1008.7 |
| 20260506155105 | 10 | 264 | 17.7 | 27.4 | 0.00 | 0.00 | 0.00 | 44 | 1008.8 |
| 20260506154114 | 10 | 238 | 9.7 | 29.0 | 0.00 | 0.00 | 0.00 | 47 | 1008.8 |
| 20260506153046 | 9 | 255 | 11.3 | 32.2 | 0.00 | 0.00 | 0.00 | 47 | 1008.9 |
| 20260506152023 | 9 | 252 | 11.3 | 32.2 | 0.00 | 0.00 | 0.00 | 48 | 1008.8 |
| 20260506151030 | 9 | 237 | 9.7 | 25.7 | 0.00 | 0.00 | 0.00 | 49 | 1008.7 |
| 20260506145955 | 8 | 258 | 1.6 | 0.0 | 0.00 | 0.00 | 0.00 | 52 | 1008.7 |
| 20260506143843 | 8 | 252 | 4.8 | 17.7 | 0.00 | 0.00 | 0.00 | 51 | 1008.9 |
| 20260506141727 | 8 | 258 | 4.8 | 19.3 | 0.00 | 0.00 | 0.00 | 53 | 1008.8 |
| 20260506140727 | 8 | 59 | 0.0 | 0.0 | 0.00 | 0.00 | 0.00 | 56 | 1008.7 |
| 20260506134602 | 6 | 72 | 0.0 | 0.0 | 0.00 | 0.00 | 0.00 | 61 | 1008.6 |
| 20260506133532 | 6 | 72 | 0.0 | 0.0 | 0.00 | 0.00 | 0.00 | 65 | 1008.5 |
| 20260506131351 | 2 | 73 | 0.0 | 0.0 | 0.00 | 0.00 | 0.00 | 72 | 1008.3 |
| 20260506130322 | 2 | 73 | 0.0 | 0.0 | 0.00 | 0.00 | 0.00 | 72 | 1008.2 |
| 20260506125316 | 2 | 73 | 0.0 | 0.0 | 0.00 | 0.00 | 0.00 | 73 | 1008.1 |
| 20260506124256 | 2 | 73 | 0.0 | 0.0 | 0.00 | 0.00 | 0.00 | 74 | 1008.0 |
| 20260506122118 | 1 | 74 | 0.0 | 0.0 | 0.00 | 0.00 | 0.00 | 76 | 1007.7 |
| 20260506121102 | 1 | 74 | 0.0 | 0.0 | 0.00 | 0.00 | 0.00 | 77 | 1007.6 |
| 20260506120109 | 0 | 105 | 0.0 | 0.0 | 0.00 | 0.00 | 0.00 | 78 | 1007.4 |
| 20260506115058 | 0 | 105 | 0.0 | 0.0 | 0.00 | 0.00 | 0.00 | 77 | 1007.3 |
| 20260506112920 | 0 | 105 | 0.0 | 0.0 | 0.00 | 0.00 | 0.00 | 78 | 1007.1 |
| 20260506111901 | 0 | 105 | 0.0 | 0.0 | 0.00 | 0.00 | 0.00 | 80 | 1007.2 |
| 20260506110827 | 0 | 105 | 0.0 | 0.0 | 0.00 | 0.00 | 0.00 | 82 | 1007.2 |
| 20260506105851 | 0 | 105 | 0.0 | 0.0 | 0.00 | 0.00 | 0.00 | 81 | 1007.0 |
| 20260506102628 | 0 | 105 | 0.0 | 0.0 | 0.00 | 0.00 | 0.00 | 81 | 1006.6 |
| 20260506100457 | 0 | 105 | 0.0 | 0.0 | 0.00 | 0.00 | 0.00 | 78 | 1006.3 |
| 20260506095426 | 0 | 105 | 0.0 | 0.0 | 0.00 | 0.00 | 0.00 | 77 | 1006.3 |
| 20260506094435 | 0 | 105 | 0.0 | 0.0 | 0.00 | 0.00 | 0.00 | 77 | 1006.2 |
| 20260506093437 | 0 | 105 | 0.0 | 0.0 | 0.00 | 0.00 | 0.00 | 76 | 1006.1 |
| 20260506092500 | 0 | 105 | 0.0 | 0.0 | 0.00 | 0.00 | 0.00 | 77 | 1006.2 |
| 20260506091455 | 0 | 105 | 0.0 | 0.0 | 0.00 | 0.00 | 0.00 | 76 | 1006.3 |
| 20260506085402 | 1 | 105 | 0.0 | 0.0 | 0.00 | 0.00 | 0.00 | 76 | 1006.3 |
| 20260506082202 | 1 | 105 | 0.0 | 0.0 | 0.00 | 0.00 | 0.00 | 74 | 1006.2 |
| 20260506081145 | 1 | 105 | 0.0 | 0.0 | 0.00 | 0.00 | 0.00 | 73 | 1006.2 |
| 20260506080126 | 2 | 105 | 0.0 | 0.0 | 0.00 | 0.00 | 0.00 | 71 | 1006.0 |
| 20260506073126 | 2 | 105 | 0.0 | 0.0 | 0.00 | 0.00 | 0.00 | 69 | 1006.1 |
| 20260506072110 | 2 | 105 | 0.0 | 0.0 | 0.00 | 0.00 | 0.00 | 68 | 1006.0 |
| 20260506071041 | 2 | 105 | 0.0 | 0.0 | 0.00 | 0.00 | 0.00 | 67 | 1005.9 |
| 20260506062016 | 3 | 105 | 0.0 | 0.0 | 0.00 | 0.00 | 0.00 | 64 | 1005.5 |
| 20260506061000 | 4 | 105 | 0.0 | 0.0 | 0.00 | 0.00 | 0.00 | 63 | 1005.3 |
| 20260506050845 | 5 | 107 | 0.0 | 0.0 | 0.00 | 0.00 | 0.00 | 64 | 1004.8 |
| 20260506041349 | 6 | 105 | 0.0 | 0.0 | 0.00 | 0.00 | 0.00 | 63 | 1003.8 |
| 20260506040321 | 6 | 105 | 0.0 | 0.0 | 0.00 | 0.00 | 0.00 | 64 | 1003.8 |
| 20260506035336 | 6 | 134 | 0.0 | 1.6 | 0.00 | 0.00 | 0.00 | 64 | 1003.9 |
| 20260506034314 | 6 | 157 | 0.0 | 0.0 | 0.00 | 0.00 | 0.00 | 62 | 1003.7 |
| 20260506032209 | 7 | 157 | 0.0 | 0.0 | 0.00 | 0.00 | 0.00 | 64 | 1003.3 |
| 20260506031201 | 7 | 157 | 0.0 | 1.6 | 0.00 | 0.00 | 0.00 | 62 | 1003.1 |
| 20260506030204 | 7 | 157 | 0.0 | 0.0 | 0.00 | 0.00 | 0.00 | 62 | 1002.7 |
| 20260506025131 | 7 | 157 | 0.0 | 0.0 | 0.00 | 0.00 | 0.00 | 60 | 1002.4 |
| 20260506024110 | 7 | 157 | 0.0 | 0.0 | 0.00 | 0.00 | 0.00 | 60 | 1002.2 |
| 20260506023036 | 8 | 157 | 0.0 | 0.0 | 0.00 | 0.00 | 0.00 | 57 | 1001.9 |
| 20260506022006 | 8 | 166 | 0.0 | 11.3 | 0.00 | 0.00 | 0.00 | 56 | 1001.7 |
| 20260506021004 | 8 | 173 | 0.0 | 1.6 | 0.00 | 0.00 | 0.00 | 54 | 1001.6 |
| 20260506013746 | 10 | 221 | 25.7 | 45.1 | 0.00 | 0.00 | 0.00 | 53 | 1001.0 |
| 20260506012721 | 10 | 184 | 29.0 | 43.5 | 0.00 | 0.00 | 0.00 | 49 | 1000.9 |
| 20260506011654 | 11 | 192 | 17.7 | 35.4 | 0.00 | 0.00 | 0.00 | 41 | 1000.7 |
| 20260506010701 | 12 | 189 | 11.3 | 30.6 | 0.00 | 0.00 | 0.00 | 39 | 1000.4 |
| 20260506004511 | 13 | 163 | 0.0 | 14.5 | 0.00 | 0.00 | 0.00 | 28 | 999.7 |
| 20260506001229 | 15 | 224 | 4.8 | 17.7 | 0.00 | 0.00 | 0.00 | 25 | 999.2 |
| 20260505235055 | 15 | 248 | 1.6 | 0.0 | 0.00 | 0.00 | 0.00 | 24 | 999.1 |
| 20260505234045 | 16 | 0 | 6.4 | 1.6 | 0.00 | 0.00 | 0.00 | 23 | 998.9 |